Zurück zum Katalog

GEESAT 2-05

AktivNavigationLEO
NORAD 58909·PAYLOAD·🇨🇳 China

Gestartet Feb 2, 2024 von Xichang Satellite Launch Center

Loading…

Nächste Überflüge (nächste 24 Stunden)

TLE

AktuellSource: Space-Track

Epoche: Sep 14, 2026, 14:52 UTC

1 58909U 24023E   26257.61974771  .00000917  00000-0  13776-3 0  9990
2 58909  50.0053 300.1397 0010695  44.8291 315.3510 14.83459409142190

Verfolge GEESAT 2-05 in Echtzeit mit AllMySat

Download on the App Store